Regional Weather Roundup
Issued by NWS

Home | Current Version | Previous Version | Graphics & Text | Print | Product List | Glossary On
Versions: 1 2 3 4 5 6 7 8 9 10 11 12 13 14 15 16 17 18 19 20 21 22 23 24 25 26 27 28 29 30 31 32 33 34 35 36 37 38 39 40 41 42 43 44 45 46 47 48 49 50
000
ASUS43 KMKX 171600
RWRWI

WISCONSIN REGIONAL WEATHER ROUNDUP
NATIONAL WEATHER SERVICE MILWAUKEE/SULLIVAN WI
1100 AM CDT WED SEP 17 2014

NOTE: "FAIR" INDICATES FEW OR NO CLOUDS BELOW 12,000 FEET WITH NO
SIGNIFICANT WEATHER AND/OR OBSTRUCTIONS TO VISIBILITY.

WIZ001-002-006>008-014>016-023>028-171700-
NORTHWEST WISCONSIN

CITY           SKY/WX    TMP DP  RH WIND       PRES   REMARKS
SUPERIOR ARPT  SUNNY     59  49  69 SW3       29.94S
ASHLAND        SUNNY     62  49  62 CALM      29.95F
HAYWARD        SUNNY     63  48  58 CALM      29.96S
SIREN          SUNNY     63  50  63 W6        29.96R
RICE LAKE      SUNNY     60  50  69 SW3       29.98S
LADYSMITH      MOSUNNY   59  50  70 CALM      29.98S
EAU CLAIRE     NOT AVBL
MENOMONIE      MOSUNNY   61  50  68 S6        29.97F
NEW RICHMOND   MOSUNNY   63  50  62 SW3       29.96S
OSCEOLA        SUNNY     63  53  68 CALM      29.98S
$$

WIZ003>005-009-010-017-018-171700-
NORTH CENTRAL WISCONSIN

CITY           SKY/WX    TMP DP  RH WIND       PRES   REMARKS
WOODRUFF       SUNNY     59  47  64 W6        29.95F
RHINELANDER    SUNNY     61  46  57 W9        29.97S
EAGLE RIVER    SUNNY     60  44  55 W5        29.95F
LAND O LAKES   SUNNY     61  44  54 W6        29.95F
PHILLIPS       SUNNY     60  49  67 NW5       29.96S
TOMAHAWK       SUNNY     61  48  62 CALM      29.97S
MEDFORD        SUNNY     60  50  68 W6        29.98R
MERRILL        PTSUNNY   59  49  69 W5        29.97S
$$

WIZ029-030-035-036-043>047-171700-
CENTRAL WISCONSIN

CITY           SKY/WX    TMP DP  RH WIND       PRES   REMARKS
WAUSAU         NOT AVBL
MOSINEE        SUNNY     61  52  72 W8        29.99S
MARSHFIELD     NOT AVBL
STEVENS POINT  MOSUNNY   59  46  61 W6        29.99S
WAUPACA        SUNNY     65  49  55 W10       29.99F
WAUTOMA        NOT AVBL
WISC RAPIDS    NOT AVBL
CAMP DOUGLAS   NOT AVBL
$$

WIZ011>013-019>022-031-037>040-048>050-171700-
NORTHEAST WISCONSIN

CITY           SKY/WX    TMP DP  RH WIND       PRES   REMARKS
ANTIGO         SUNNY     60  48  64 W8        29.98S
STURGEON BAY   SUNNY     61  48  63 W8        29.99S
GREEN BAY      SUNNY     64  50  60 W7        29.98F
MANITOWOC      NOT AVBL
APPLETON       MOSUNNY   61  46  59 W9        29.99F
CLINTONVILLE   SUNNY     61  48  63 W6        29.98S
OSHKOSH        SUNNY     63  48  58 VRB7      29.99F
$$

WIZ032>034-041-042-053>061-171700-
SOUTHWEST WISCONSIN

CITY           SKY/WX    TMP DP  RH WIND       PRES   REMARKS
LA CROSSE      NOT AVBL
SPARTA         CLOUDY    59  48  67 CALM      30.01S
VIROQUA        CLOUDY    61  48  62 SW5       30.01S
BOSCOBEL       CLOUDY    60  50  69 CALM      30.02S
PRAIRIE DU CHI CLOUDY    59  49  69 S3        30.01S
PLATTEVILLE    PTSUNNY   60  49  65 CALM      30.03S
$$

WIZ056-057-062-063-064-067-068-171700-
SOUTH CENTRAL WISCONSIN

CITY           SKY/WX    TMP DP  RH WIND       PRES   REMARKS
BARABOO/DELLS  PTSUNNY   60  46  58 SW5       30.01F
LONE ROCK      NOT AVBL
WATERTOWN      MOSUNNY   61  49  64 SW7       30.01F
MADISON        PTSUNNY   62  46  55 W6        30.02S
MIDDLETON      CLOUDY    63  46  54 W5        30.02S
MONROE         CLOUDY    61  48  63 S7        30.02S
JANESVILLE     SUNNY     64  46  52 SW6       30.02S
$$

WIZ051-052-058>065-066-070>072-171700-
SOUTHEAST WISCONSIN

CITY           SKY/WX    TMP DP  RH WIND       PRES   REMARKS
MILWAUKEE      MOSUNNY   64  44  48 W6        30.02F
WAUKESHA       SUNNY     61  45  55 W6        30.03S
MILWAUKEE/TIMM SUNNY     63  45  51 W9        30.03S
RACINE         SUNNY     64  46  52 W5        30.04S
BURLINGTON     SUNNY     62  43  50 W5        30.02S
KENOSHA        SUNNY     64  47  53 W6        30.03S
FOND DU LAC    SUNNY     63  48  58 W8        30.00F
SHEBOYGAN      SUNNY     64  47  53 W8        30.00F
WEST BEND      SUNNY     61  45  55 W6        30.01F
JUNEAU         MOSUNNY   60  48  66 SW7       30.02F
$$

LSZ147-162-171700-
LAKE SUPERIOR

STATION/POSITION TIME  TEMP    WIND        PRES    WAVE
                       AIR SEA DIR/SP/G            HT/PER
                 (UTC) (F)     (DEG/KT/KT) (MB)    (FT/S)
W MID LAKE BUOY  1450   46 46   60/ 14/ 16 1014.6R   2/ 4
DEVILS ISLAND    1500   50      30/  8/  9 1014.6R
PORT WING        1500   56     190/  4/  7 1014.2F
SAXON HARBOR     1500   60        CALM     1014.2F
$$

LMZ867-665-643>646-171700-
LAKE MICHIGAN

STATION/POSITION TIME  TEMP    WIND        PRES    WAVE
                       AIR SEA DIR/SP/G            HT/PER
                 (UTC) (F)     (DEG/KT/KT) (MB)    (FT/S)
N MID LAKE BUOY  1450   57 58  250/ 12/ 14 1015.0S   2/ 4
NORTHPORT PIER   1500   61     280/  7/ 13 1014.9F
KEWAUNEE LAKESHO 1500   61     250/  4/  7 1014.6F
SHEBOYGAN LAKESH 1500   60 52  240/  9/ 10 1016.4F
PORT WASHINGTON  1500   63     250/  5/ 11 1016.9F
ATWATER BUOY     1500   60     250/  8/ 10 1017.5F
MILWAUKEE LAKESH 1500   60     240/  6/  8   N/A
S MID LAKE BUOY  1450   61 65  260/  8/ 10 1016.9F   1/ 3
KENOSHA   LAKESH 1500   61     310/  6/  7 1016.6F
$$

TC  - TEMPERATURE IN CELSIUS
VSB - VISIBILITY IN STATUTE MILES
WCI - WIND CHILL INDEX
HX  - HEAT INDEX




USA.gov is the U.S. government's official web portal to all federal, state and local government web resources and services.